DW4725 Weather Reports


Display with metric or nautical units.
time (UTC)temp
F
wind
direction
speed
MPH
gust
MPH
rain 1hr
in
rain 24hr
in
rain mn
in
humidity
%
barometer
mb
20260831200408 61 220 0.0 0.0 0.00 0.18 0.18 72 1023.0
20260831195846 61 217 0.0 0.0 0.00 0.18 0.18 72 1022.9
20260831195643 61 217 0.0 0.0 0.00 0.18 0.18 71 1022.9
20260831195442 61 218 0.0 0.0 0.00 0.18 0.18 71 1022.9
20260831195240 61 217 0.0 0.0 0.00 0.18 0.18 71 1022.8
20260831195039 61 217 0.0 2.0 0.00 0.18 0.18 70 1022.9
20260831194838 61 234 0.0 2.0 0.00 0.18 0.18 70 1022.8
20260831193944 61 235 0.0 3.0 0.00 0.18 0.18 71 1022.6
20260831193417 61 246 0.0 3.0 0.00 0.18 0.18 71 1022.6
20260831193208 61 242 0.0 3.0 0.00 0.18 0.18 71 1022.6
20260831193006 61 249 0.0 3.0 0.00 0.18 0.18 70 1022.5
20260831192805 61 239 0.0 3.0 0.00 0.18 0.18 70 1022.4
20260831192600 61 264 0.0 3.0 0.00 0.18 0.18 70 1022.5
20260831192042 62 235 0.0 1.0 0.00 0.18 0.18 70 1022.5
20260831191837 62 238 0.0 0.0 0.00 0.18 0.18 69 1022.5
20260831191631 62 238 0.0 2.0 0.00 0.18 0.18 69 1022.6
20260831191426 62 249 0.0 2.0 0.00 0.18 0.18 69 1022.5
20260831191227 62 235 0.0 1.0 0.00 0.18 0.18 69 1022.5
20260831191021 62 233 0.0 1.0 0.00 0.18 0.18 69 1022.5
20260831190822 62 230 0.0 1.0 0.00 0.18 0.18 69 1022.6
20260831190614 62 229 0.0 1.0 0.00 0.18 0.18 69 1022.6
20260831190407 62 243 0.0 1.0 0.00 0.18 0.18 69 1022.5
20260831190206 62 243 0.0 1.0 0.00 0.18 0.18 69 1022.5
20260831185957 62 243 0.0 1.0 0.00 0.18 0.18 69 1022.6
20260831185431 62 245 0.0 1.0 0.00 0.18 0.18 68 1022.5
20260831185226 62 288 0.0 1.0 0.00 0.18 0.18 69 1022.4
20260831185020 62 248 0.0 1.0 0.00 0.18 0.18 69 1022.4
20260831184813 62 247 0.0 1.0 0.00 0.18 0.18 69 1022.4
20260831184608 62 248 0.0 1.0 0.00 0.18 0.18 68 1022.3
20260831184409 62 248 0.0 1.0 0.00 0.18 0.18 68 1022.3
20260831184202 62 246 0.0 1.0 0.00 0.18 0.18 68 1022.2
20260831183644 62 240 0.0 2.0 0.00 0.18 0.18 67 1022.1
20260831183435 62 237 0.0 2.0 0.00 0.18 0.18 67 1022.2
20260831183231 63 248 0.0 2.0 0.00 0.18 0.18 67 1022.1
20260831183025 63 253 0.0 3.0 0.00 0.18 0.18 67 1022.1
20260831182822 63 250 0.0 3.0 0.00 0.18 0.18 67 1022.0
20260831182306 63 240 0.0 3.0 0.00 0.18 0.18 66 1021.9
20260831182104 63 233 0.0 3.0 0.00 0.18 0.18 66 1021.9
20260831181901 63 246 0.0 3.0 0.00 0.18 0.18 66 1021.9
20260831181652 63 249 0.0 3.0 0.00 0.18 0.18 67 1021.9
20260831181447 63 259 0.0 3.0 0.00 0.18 0.18 66 1021.8
20260831181240 63 234 0.0 3.0 0.00 0.18 0.18 66 1021.9
20260831181036 63 243 0.0 2.0 0.00 0.18 0.18 66 1021.9
20260831180835 64 229 0.0 2.0 0.00 0.18 0.18 66 1021.8
20260831180626 64 235 0.0 2.0 0.00 0.18 0.18 66 1021.8
20260831180417 64 245 0.0 3.0 0.00 0.18 0.18 66 1021.8
20260831180215 64 234 0.0 3.0 0.00 0.18 0.18 66 1021.7
20260831180008 64 243 0.0 3.0 0.00 0.18 0.18 66 1021.7
20260831175807 64 242 0.0 3.0 0.00 0.18 0.18 66 1021.7
20260831175602 65 274 0.0 3.0 0.00 0.18 0.18 65 1021.7
20260831175352 65 294 0.0 5.0 0.00 0.18 0.18 64 1021.7
20260831175145 65 243 1.0 5.0 0.00 0.18 0.18 64 1021.7
20260831174943 65 220 1.0 5.0 0.00 0.18 0.18 65 1021.6
20260831174743 65 260 1.0 5.0 0.00 0.18 0.18 64 1021.5
20260831173901 66 266 1.0 6.0 0.00 0.18 0.18 65 1021.5
20260831173657 66 267 2.0 6.0 0.00 0.18 0.18 65 1021.6
20260831173447 66 241 2.0 6.0 0.00 0.18 0.18 64 1021.5
20260831172918 66 299 2.0 9.0 0.00 0.18 0.18 63 1021.4
20260831172715 66 280 2.0 9.0 0.00 0.18 0.18 63 1021.3
20260831172515 66 283 2.0 9.0 0.00 0.18 0.18 64 1021.4
20260831172307 66 264 3.0 9.0 0.00 0.18 0.18 63 1021.3
20260831172106 67 286 3.0 9.0 0.00 0.18 0.18 63 1021.3
20260831171547 67 287 3.0 9.0 0.00 0.18 0.18 63 1021.4
20260831171339 67 276 3.0 9.0 0.00 0.18 0.18 63 1021.3
20260831171134 67 279 3.0 9.0 0.00 0.18 0.18 63 1021.3
20260831170609 67 272 2.0 9.0 0.00 0.18 0.18 63 1021.3
20260831165730 68 281 1.0 8.0 0.00 0.18 0.18 62 1021.1
20260831165527 68 266 1.0 8.0 0.00 0.18 0.18 63 1021.1
20260831165324 68 272 1.0 8.0 0.00 0.18 0.18 62 1021.1
20260831164807 68 270 2.0 8.0 0.00 0.18 0.18 61 1021.2
20260831164608 68 295 2.0 11.0 0.00 0.18 0.18 59 1021.2
20260831164404 68 253 3.0 11.0 0.00 0.18 0.18 61 1021.2
20260831164201 68 289 3.0 11.0 0.00 0.18 0.18 61 1021.2
20260831163631 69 286 3.0 11.0 0.00 0.18 0.18 59 1021.1
20260831163103 69 267 3.0 11.0 0.00 0.18 0.18 57 1021.0
20260831162853 69 212 3.0 11.0 0.00 0.18 0.18 57 1020.9
20260831162018 70 255 3.0 12.0 0.00 0.18 0.18 57 1020.9
20260831161808 70 251 4.0 12.0 0.00 0.18 0.18 57 1020.9
20260831161559 69 247 4.0 13.0 0.00 0.18 0.18 57 1020.8
20260831161350 69 293 5.0 13.0 0.00 0.18 0.18 56 1020.8
20260831161151 70 301 5.0 13.0 0.00 0.18 0.18 57 1020.7
20260831160942 70 300 5.0 13.0 0.00 0.18 0.18 55 1020.8
20260831160413 70 233 5.0 13.0 0.00 0.18 0.18 54 1020.7
20260831160212 70 271 4.0 13.0 0.00 0.18 0.18 54 1020.8
20260831160010 70 285 4.0 13.0 0.00 0.18 0.18 54 1020.7
20260831155805 70 295 3.0 13.0 0.00 0.18 0.18 54 1020.8
20260831155243 70 293 3.0 11.0 0.00 0.18 0.18 54 1020.7
20260831155033 70 264 3.0 11.0 0.00 0.18 0.18 53 1020.6
20260831154828 70 262 3.0 11.0 0.00 0.18 0.18 53 1020.6
20260831154627 70 251 4.0 11.0 0.00 0.18 0.18 52 1020.7
20260831154107 70 263 4.0 11.0 0.00 0.18 0.18 51 1020.7
20260831153900 70 288 4.0 11.0 0.00 0.18 0.18 49 1020.6
20260831153659 70 297 4.0 11.0 0.00 0.18 0.18 51 1020.7
20260831153454 70 243 4.0 12.0 0.00 0.18 0.18 49 1020.6
20260831153251 70 261 5.0 12.0 0.00 0.18 0.18 50 1020.7
20260831153050 70 285 5.0 12.0 0.00 0.18 0.18 49 1020.6
20260831152842 70 255 5.0 12.0 0.00 0.18 0.18 49 1020.8
20260831152642 70 283 5.0 12.0 0.00 0.18 0.18 46 1020.6
20260831152432 70 221 5.0 13.0 0.00 0.18 0.18 49 1020.8
20260831152230 71 243 4.0 13.0 0.00 0.18 0.18 50 1020.7
20260831151704 71 230 5.0 13.0 0.00 0.18 0.18 51 1020.7
20260831151458 71 240 5.0 14.0 0.00 0.18 0.18 49 1020.6
20260831151253 71 256 5.0 14.0 0.00 0.18 0.18 48 1020.6
20260831151048 71 256 6.0 14.0 0.00 0.18 0.18 49 1020.6
20260831150521 71 213 4.0 21.0 0.00 0.18 0.18 47 1020.6
20260831150322 71 270 4.0 21.0 0.00 0.18 0.18 45 1020.6
20260831150121 71 227 4.0 21.0 0.00 0.18 0.18 53 1020.7
20260831145918 71 261 4.0 21.0 0.00 0.18 0.18 50 1020.6
20260831145351 70 238 7.0 21.0 0.00 0.18 0.18 46 1020.6
20260831145149 70 208 8.0 21.0 0.00 0.18 0.18 48 1020.6
20260831144940 70 231 8.0 21.0 0.00 0.18 0.18 46 1020.5
20260831144736 71 228 6.0 21.0 0.00 0.18 0.18 43 1020.4
20260831144222 71 234 5.0 15.0 0.00 0.18 0.18 46 1020.6
20260831144014 71 252 5.0 17.0 0.00 0.18 0.18 46 1020.6
20260831143803 71 276 5.0 17.0 0.00 0.18 0.18 48 1020.5
20260831143559 71 261 5.0 17.0 0.00 0.18 0.18 46 1020.5
20260831143355 71 246 6.0 17.0 0.00 0.18 0.18 45 1020.5
20260831143153 71 238 6.0 17.0 0.00 0.18 0.18 47 1020.5
20260831142948 71 214 6.0 17.0 0.00 0.18 0.18 48 1020.5
20260831142738 71 217 6.0 17.0 0.00 0.18 0.18 49 1020.5
20260831142535 71 250 6.0 17.0 0.00 0.18 0.18 47 1020.4
20260831142334 71 257 5.0 17.0 0.00 0.18 0.18 46 1020.5
20260831142134 71 244 4.0 16.0 0.00 0.18 0.18 46 1020.4
20260831141925 71 255 4.0 16.0 0.00 0.18 0.18 49 1020.4
20260831140737 71 274 7.0 16.0 0.00 0.18 0.18 48 1020.5
20260831140528 71 253 7.0 16.0 0.00 0.18 0.18 44 1020.4
20260831140320 71 251 7.0 16.0 0.00 0.18 0.18 47 1020.3
20260831140116 71 232 8.0 16.0 0.00 0.18 0.18 45 1020.4
20260831135913 71 238 7.0 16.0 0.00 0.18 0.18 45 1020.4
20260831135710 71 268 6.0 16.0 0.00 0.18 0.18 50 1020.3
20260831135503 71 238 5.0 16.0 0.00 0.18 0.18 48 1020.4
20260831135257 71 259 5.0 14.0 0.00 0.18 0.18 46 1020.3
20260831135055 71 233 4.0 13.0 0.00 0.18 0.18 46 1020.4
20260831134540 70 224 4.0 13.0 0.00 0.18 0.18 51 1020.4
20260831134338 70 217 5.0 13.0 0.00 0.18 0.18 51 1020.2
20260831134132 70 68 5.0 13.0 0.00 0.18 0.18 48 1020.4
20260831133930 70 243 4.0 13.0 0.00 0.18 0.18 51 1020.3
20260831133729 70 219 5.0 13.0 0.00 0.18 0.18 51 1020.3
20260831133528 70 302 5.0 14.0 0.00 0.18 0.18 51 1020.3
20260831133320 70 246 5.0 14.0 0.00 0.18 0.18 52 1020.3
20260831133120 70 257 6.0 14.0 0.00 0.18 0.18 52 1020.3
20260831132913 70 277 6.0 14.0 0.00 0.18 0.18 54 1020.3
20260831132709 70 229 6.0 14.0 0.00 0.18 0.18 53 1020.4
20260831132509 70 271 6.0 14.0 0.00 0.18 0.18 52 1020.4
20260831132300 70 262 6.0 14.0 0.00 0.18 0.18 55 1020.5
20260831132050 70 254 7.0 14.0 0.00 0.18 0.18 57 1020.4
20260831131847 70 278 7.0 14.0 0.00 0.18 0.18 54 1020.4
20260831131639 70 255 7.0 13.0 0.00 0.18 0.18 53 1020.5
20260831131434 70 238 7.0 13.0 0.00 0.18 0.18 55 1020.4
20260831131231 70 238 7.0 13.0 0.00 0.18 0.18 53 1020.5
20260831130348 70 229 5.0 14.0 0.00 0.18 0.18 59 1020.6
20260831130141 70 288 5.0 14.0 0.00 0.18 0.18 61 1020.6
20260831125936 70 287 6.0 14.0 0.00 0.18 0.18 61 1020.6
20260831125411 69 238 6.0 14.0 0.00 0.18 0.18 59 1020.5
20260831125210 69 252 7.0 14.0 0.00 0.18 0.18 57 1020.5
20260831125000 69 263 7.0 14.0 0.00 0.18 0.18 59 1020.5
20260831124754 69 262 7.0 14.0 0.00 0.18 0.18 59 1020.5
20260831124543 69 250 7.0 14.0 0.00 0.18 0.18 57 1020.6
20260831124336 69 248 7.0 17.0 0.00 0.18 0.18 56 1020.5
20260831123820 70 259 5.0 17.0 0.00 0.18 0.18 62 1020.6
20260831123612 69 233 6.0 17.0 0.00 0.18 0.18 61 1020.5
20260831123412 69 242 6.0 17.0 0.00 0.18 0.18 60 1020.5
20260831123202 69 255 6.0 17.0 0.00 0.18 0.18 61 1020.5
20260831122955 69 246 7.0 17.0 0.00 0.18 0.18 60 1020.4
20260831122430 69 211 5.0 17.0 0.00 0.18 0.18 62 1020.5
20260831122221 69 244 5.0 14.0 0.00 0.18 0.18 62 1020.6
20260831122022 69 213 5.0 14.0 0.00 0.18 0.18 62 1020.5
20260831121130 69 273 5.0 16.0 0.00 0.18 0.18 68 1020.6
20260831120922 69 232 5.0 16.0 0.00 0.18 0.18 69 1020.6
20260831120035 68 290 6.0 16.0 0.00 0.18 0.18 68 1020.6
20260831115828 68 246 6.0 16.0 0.00 0.18 0.18 69 1020.7
20260831115629 68 251 6.0 16.0 0.00 0.18 0.18 67 1020.7
20260831115112 68 285 4.0 15.0 0.00 0.18 0.18 68 1020.6
20260831114903 68 238 4.0 13.0 0.00 0.18 0.18 69 1020.7
20260831114335 68 238 3.0 11.0 0.00 0.18 0.18 71 1020.6
20260831113808 68 285 4.0 11.0 0.00 0.18 0.18 69 1020.8
20260831113241 68 236 4.0 11.0 0.00 0.18 0.18 72 1020.6
20260831113038 67 259 4.0 11.0 0.00 0.18 0.18 70 1020.6
20260831112828 67 207 4.0 10.0 0.00 0.18 0.18 74 1020.8
20260831112629 67 209 5.0 16.0 0.00 0.18 0.18 72 1020.7
20260831112423 67 283 5.0 16.0 0.00 0.18 0.18 72 1020.7
20260831112213 67 260 5.0 16.0 0.00 0.18 0.18 72 1020.6
20260831112014 66 255 6.0 16.0 0.00 0.18 0.18 71 1020.8
20260831111811 67 248 6.0 16.0 0.00 0.18 0.18 71 1020.7
20260831111606 67 247 6.0 17.0 0.00 0.18 0.18 72 1020.7
20260831111402 67 244 6.0 17.0 0.00 0.18 0.18 72 1020.6
20260831111202 67 217 6.0 17.0 0.00 0.18 0.18 71 1020.8
20260831110633 67 252 7.0 17.0 0.00 0.18 0.18 73 1020.8
20260831110428 67 220 7.0 17.0 0.00 0.18 0.18 73 1020.8
20260831110222 67 248 7.0 17.0 0.00 0.18 0.18 75 1020.8
20260831110016 67 236 6.0 17.0 0.00 0.18 0.18 73 1020.8
20260831105808 67 245 5.0 17.0 0.00 0.18 0.18 74 1020.7
20260831105608 67 233 5.0 14.0 0.00 0.18 0.18 75 1020.8
20260831105401 67 255 4.0 14.0 0.00 0.18 0.18 76 1020.8
20260831105152 67 285 4.0 14.0 0.00 0.18 0.18 75 1020.8
20260831104625 67 229 4.0 14.0 0.00 0.18 0.18 79 1020.8
20260831104415 67 231 4.0 14.0 0.00 0.18 0.18 77 1020.7
20260831104208 67 225 3.0 14.0 0.00 0.18 0.18 78 1020.8
20260831104005 67 257 3.0 14.0 0.00 0.18 0.18 78 1020.8
20260831103806 67 226 3.0 14.0 0.00 0.18 0.18 77 1020.8
20260831103559 67 222 3.0 14.0 0.00 0.18 0.18 79 1020.8
20260831103357 67 264 4.0 14.0 0.00 0.18 0.18 82 1020.7
20260831103148 66 235 5.0 14.0 0.00 0.18 0.18 80 1020.8
20260831102942 66 236 6.0 14.0 0.00 0.18 0.18 79 1020.8
20260831102738 66 233 6.0 14.0 0.00 0.18 0.18 80 1020.8
20260831102539 66 205 5.0 14.0 0.00 0.18 0.18 79 1020.8
20260831102338 66 252 5.0 14.0 0.00 0.18 0.18 80 1020.8
20260831102136 65 236 5.0 12.0 0.00 0.18 0.18 80 1020.9
20260831101927 65 244 4.0 12.0 0.00 0.18 0.18 80 1020.8
20260831101719 66 232 4.0 11.0 0.00 0.18 0.18 80 1020.9
20260831101512 66 300 4.0 12.0 0.00 0.18 0.18 81 1020.9
20260831101310 65 295 4.0 12.0 0.00 0.18 0.18 80 1020.8
20260831101101 65 231 4.0 12.0 0.00 0.18 0.18 80 1020.8
20260831100535 65 247 4.0 12.0 0.00 0.18 0.18 80 1020.8
20260831100334 65 244 4.0 12.0 0.00 0.18 0.18 79 1020.8
20260831095810 66 237 4.0 12.0 0.00 0.18 0.18 79 1020.8
20260831095246 66 246 4.0 15.0 0.00 0.18 0.18 79 1020.8
20260831094721 66 257 4.0 15.0 0.00 0.18 0.18 80 1020.8
20260831094510 66 240 4.0 15.0 0.00 0.18 0.18 80 1020.8
20260831094301 65 254 5.0 15.0 0.00 0.18 0.18 78 1020.8
20260831094059 65 230 6.0 15.0 0.00 0.18 0.18 79 1020.8
20260831093850 66 250 5.0 15.0 0.00 0.18 0.18 77 1020.8
20260831093641 66 251 5.0 15.0 0.00 0.18 0.18 78 1020.9
20260831093439 66 248 5.0 12.0 0.00 0.18 0.18 78 1020.8
20260831092558 65 231 4.0 12.0 0.00 0.18 0.18 81 1020.8
20260831092358 65 221 4.0 12.0 0.00 0.18 0.18 82 1020.8
20260831092149 65 250 4.0 12.0 0.00 0.18 0.18 83 1020.7
20260831091620 64 214 5.0 12.0 0.00 0.18 0.18 81 1020.8
20260831091416 64 236 4.0 11.0 0.00 0.18 0.18 83 1020.8
20260831091214 64 227 4.0 11.0 0.00 0.18 0.18 81 1020.7
20260831091014 64 272 4.0 11.0 0.00 0.18 0.18 82 1020.7
20260831090810 64 236 4.0 11.0 0.00 0.18 0.18 83 1020.6
20260831090609 64 234 4.0 11.0 0.00 0.18 0.18 83 1020.8
20260831090408 64 250 4.0 11.0 0.00 0.18 0.18 84 1020.8
20260831090204 63 260 4.0 11.0 0.00 0.18 0.18 82 1020.6
20260831090005 63 271 4.0 11.0 0.00 0.18 0.18 82 1020.7
20260831085801 64 234 4.0 11.0 0.00 0.18 0.18 83 1020.7
20260831085559 63 240 4.0 11.0 0.00 0.18 0.18 83 1020.6
20260831085356 63 231 4.0 12.0 0.00 0.18 0.18 82 1020.8
20260831085153 63 233 4.0 12.0 0.00 0.18 0.18 82 1020.6
20260831084949 63 269 4.0 12.0 0.00 0.18 0.18 82 1020.7
20260831084745 64 240 4.0 12.0 0.00 0.18 0.18 82 1020.6
20260831084547 63 256 4.0 12.0 0.00 0.18 0.18 84 1020.7
20260831084344 63 250 4.0 12.0 0.00 0.18 0.18 83 1020.7
20260831083825 62 240 4.0 12.0 0.00 0.18 0.18 82 1020.6
20260831083617 62 291 4.0 12.0 0.00 0.18 0.18 83 1020.5
20260831083409 62 224 4.0 10.0 0.00 0.18 0.18 82 1020.6
20260831083202 62 250 3.0 10.0 0.00 0.18 0.18 82 1020.6
20260831083003 62 259 3.0 10.0 0.00 0.18 0.18 83 1020.6
20260831082753 62 238 3.0 8.0 0.00 0.18 0.18 82 1020.6
20260831082547 62 254 3.0 11.0 0.00 0.18 0.18 82 1020.5
20260831082340 62 242 3.0 11.0 0.00 0.18 0.18 84 1020.6
20260831081822 61 236 3.0 11.0 0.00 0.18 0.18 83 1020.5
20260831081618 61 238 3.0 11.0 0.00 0.18 0.18 83 1020.5
20260831081414 61 300 4.0 11.0 0.00 0.18 0.18 82 1020.4
20260831081212 61 244 3.0 11.0 0.00 0.18 0.18 83 1020.5
20260831080637 61 217 2.0 11.0 0.00 0.18 0.18 82 1020.5
20260831080430 62 262 1.0 7.0 0.00 0.18 0.18 83 1020.4
20260831080226 62 278 2.0 7.0 0.00 0.18 0.18 84 1020.5
20260831080021 61 245 2.0 7.0 0.00 0.18 0.18 84 1020.4
20260831075457 61 242 2.0 7.0 0.00 0.18 0.18 84 1020.4
20260831075250 61 221 2.0 7.0 0.00 0.18 0.18 84 1020.3
20260831075039 61 274 2.0 7.0 0.00 0.18 0.18 84 1020.2
20260831074839 61 232 1.0 7.0 0.00 0.18 0.18 84 1020.4
20260831074631 61 243 1.0 6.0 0.00 0.18 0.18 83 1020.3
20260831074430 61 226 1.0 6.0 0.00 0.18 0.18 86 1020.4
20260831074222 60 250 1.0 6.0 0.00 0.18 0.18 85 1020.3
20260831074016 60 225 1.0 6.0 0.00 0.18 0.18 86 1020.3
20260831073812 60 248 1.0 6.0 0.00 0.18 0.18 85 1020.3
20260831073612 60 231 2.0 6.0 0.00 0.18 0.18 85 1020.4
20260831073403 60 232 2.0 6.0 0.00 0.18 0.18 84 1020.3
20260831072838 60 227 2.0 10.0 0.00 0.18 0.18 84 1020.4
20260831072313 60 226 2.0 10.0 0.00 0.18 0.18 83 1020.3
20260831072113 60 224 3.0 10.0 0.00 0.18 0.18 83 1020.2
20260831071904 60 234 4.0 10.0 0.00 0.18 0.18 83 1020.3
20260831071702 60 252 4.0 10.0 0.00 0.18 0.18 83 1020.3
20260831071136 60 245 4.0 10.0 0.00 0.18 0.18 82 1020.1
20260831070928 60 252 3.0 9.0 0.00 0.18 0.18 84 1020.3
20260831070719 60 216 3.0 9.0 0.00 0.18 0.18 85 1020.2
20260831070510 60 231 2.0 9.0 0.00 0.18 0.18 85 1020.2
20260831070301 59 270 2.0 9.0 0.00 0.18 0.18 85 1020.1
20260831065853 59 260 2.0 7.0 0.00 0.18 0.18 85 1020.1
20260831065653 59 250 2.0 7.0 0.00 0.18 0.18 85 1020.1
20260831065444 60 266 2.0 7.0 0.00 0.18 0.18 85 1020.1
20260831065240 60 250 1.0 11.0 0.00 0.18 0.18 85 1020.1
20260831065040 60 225 1.0 11.0 0.00 0.18 0.18 86 1020.1
20260831064522 59 262 3.0 11.0 0.00 0.18 0.18 87 1020.1
20260831064316 59 248 3.0 11.0 0.00 0.18 0.18 86 1020.1
20260831063750 59 262 4.0 11.0 0.00 0.18 0.18 85 1020.0
20260831063549 59 222 3.0 11.0 0.00 0.18 0.18 87 1020.1
20260831063344 59 235 3.0 11.0 0.00 0.18 0.18 86 1020.1
20260831063140 59 250 2.0 9.0 0.00 0.18 0.18 88 1020.1
20260831062932 59 270 2.0 9.0 0.00 0.18 0.18 88 1020.0
20260831062731 59 269 2.0 8.0 0.00 0.18 0.18 88 1020.0
20260831062524 59 238 2.0 9.0 0.00 0.18 0.18 89 1020.0
20260831062004 59 242 2.0 9.0 0.00 0.18 0.18 90 1020.0
20260831061757 59 238 2.0 9.0 0.00 0.18 0.18 90 1019.9
20260831061548 59 231 2.0 9.0 0.00 0.18 0.18 90 1020.0
20260831061348 59 229 3.0 9.0 0.00 0.18 0.18 90 1019.9
20260831060503 59 222 3.0 8.0 0.00 0.18 0.18 91 1019.8
20260831060256 59 234 2.0 8.0 0.00 0.18 0.18 91 1019.8
20260831060057 59 235 2.0 7.0 0.00 0.18 0.18 91 1019.9
20260831055536 59 233 1.0 7.0 0.00 0.18 0.18 92 1019.8
20260831055335 59 260 1.0 7.0 0.00 0.18 0.18 93 1019.8
20260831055132 59 234 2.0 8.0 0.00 0.18 0.18 93 1019.8
20260831054926 59 243 2.0 8.0 0.00 0.18 0.18 93 1019.7
20260831054718 59 231 2.0 8.0 0.00 0.18 0.18 94 1019.8
20260831054517 59 257 2.0 8.0 0.00 0.18 0.18 94 1019.8
20260831054316 59 214 2.0 8.0 0.00 0.18 0.18 95 1019.7
20260831054115 59 266 2.0 8.0 0.00 0.18 0.18 95 1019.8
20260831053547 59 238 1.0 8.0 0.00 0.18 0.18 96 1019.6
20260831053344 59 210 1.0 8.0 0.00 0.18 0.18 96 1019.5
20260831052815 59 224 1.0 5.0 0.00 0.18 0.18 96 1019.5
20260831052610 59 281 1.0 5.0 0.00 0.18 0.18 96 1019.4
20260831052038 60 229 1.0 10.0 0.00 0.18 0.18 96 1019.4
20260831051830 60 237 1.0 10.0 0.00 0.18 0.18 96 1019.5
20260831051620 60 238 2.0 10.0 0.00 0.18 0.18 95 1019.4
20260831051415 60 242 2.0 10.0 0.00 0.18 0.18 95 1019.4
20260831051209 60 214 2.0 10.0 0.00 0.18 0.18 95 1019.4
20260831051008 60 226 2.0 10.0 0.00 0.18 0.18 95 1019.3
20260831050800 60 251 1.0 10.0 0.00 0.18 0.18 95 1019.4
20260831050600 60 255 1.0 10.0 0.00 0.18 0.18 95 1019.4
20260831050357 60 264 1.0 10.0 0.00 0.18 0.18 95 1019.3
20260831050148 60 231 1.0 10.0 0.00 0.18 0.18 95 1019.4
20260831045943 60 266 1.0 6.0 0.00 0.18 0.18 96 1019.3
20260831045416 60 237 1.0 7.0 0.00 0.18 0.18 95 1019.2
20260831045215 60 311 1.0 7.0 0.00 0.18 0.18 95 1019.3
20260831045007 60 254 1.0 7.0 0.00 0.18 0.18 95 1019.3
20260831044758 60 239 2.0 7.0 0.00 0.18 0.18 95 1019.2
20260831044552 60 245 2.0 10.0 0.00 0.18 0.18 95 1019.3
20260831044343 60 224 2.0 10.0 0.00 0.18 0.18 95 1019.2
20260831044141 60 202 2.0 10.0 0.00 0.18 0.18 95 1019.2
20260831043938 60 241 2.0 10.0 0.00 0.18 0.18 95 1019.2
20260831043730 60 236 2.0 10.0 0.00 0.18 0.18 95 1019.3
20260831043529 61 212 2.0 10.0 0.00 0.18 0.18 94 1019.2
20260831043329 61 229 3.0 10.0 0.00 0.18 0.18 94 1019.2
20260831042803 61 250 3.0 10.0 0.00 0.18 0.18 95 1019.2
20260831042554 61 224 2.0 9.0 0.00 0.18 0.18 95 1019.1
20260831042347 61 199 2.0 9.0 0.00 0.18 0.18 94 1019.2
20260831042138 61 222 2.0 10.0 0.00 0.18 0.18 94 1019.2
20260831041938 61 285 2.0 10.0 0.00 0.18 0.18 94 1019.2
20260831041735 61 230 2.0 10.0 0.00 0.18 0.18 94 1019.2
20260831040904 61 217 3.0 10.0 0.00 0.18 0.18 94 1019.2
20260831040337 61 222 3.0 10.0 0.00 0.18 0.18 94 1019.2
20260831040136 61 216 3.0 8.0 0.00 0.18 0.18 94 1019.1
20260831035934 61 264 3.0 8.0 0.00 0.18 0.18 94 1019.2
20260831035726 61 242 3.0 8.0 0.00 0.18 0.18 94 1019.3
20260831035521 61 264 3.0 8.0 0.00 0.18 0.18 93 1019.1
20260831035321 61 249 3.0 8.0 0.00 0.18 0.18 93 1019.1
20260831035111 61 240 3.0 8.0 0.00 0.18 0.18 93 1019.0
20260831034905 61 263 3.0 8.0 0.00 0.18 0.18 93 1019.1
20260831034703 61 243 2.0 7.0 0.00 0.18 0.18 93 1019.1
20260831034135 61 221 2.0 9.0 0.00 0.18 0.18 93 1019.2
20260831033612 61 236 3.0 9.0 0.00 0.18 0.18 92 1019.2
20260831033401 61 229 4.0 9.0 0.00 0.18 0.18 92 1019.1
20260831033154 61 226 3.0 9.0 0.00 0.18 0.18 92 1019.1
20260831032950 61 247 3.0 9.0 0.00 0.18 0.18 92 1019.1
20260831032749 61 236 2.0 9.0 0.00 0.18 0.18 92 1019.1
20260831032540 61 215 3.0 9.0 0.00 0.18 0.18 92 1019.1
20260831032017 61 240 3.0 7.0 0.00 0.18 0.18 92 1019.0
20260831031817 61 241 3.0 7.0 0.00 0.18 0.18 92 1019.0
20260831031613 61 244 2.0 7.0 0.00 0.18 0.18 92 1019.1
20260831031405 61 248 3.0 9.0 0.00 0.18 0.18 92 1019.0
20260831030840 61 236 3.0 9.0 0.00 0.18 0.18 92 1019.1
20260831030629 61 236 3.0 9.0 0.00 0.18 0.18 91 1019.0
20260831030428 61 232 4.0 11.0 0.00 0.18 0.18 91 1019.1
20260831030225 61 245 3.0 11.0 0.00 0.18 0.18 92 1019.0
20260831030019 61 231 3.0 11.0 0.00 0.18 0.18 92 1019.1
20260831025817 61 228 4.0 11.0 0.00 0.18 0.18 92 1019.0
20260831025616 61 240 4.0 11.0 0.00 0.18 0.18 92 1019.0
20260831025410 61 238 4.0 11.0 0.00 0.18 0.18 91 1018.9
20260831025207 61 263 5.0 11.0 0.00 0.18 0.18 91 1018.9
20260831025006 61 241 5.0 11.0 0.00 0.18 0.18 91 1018.9
20260831024804 61 240 5.0 11.0 0.00 0.18 0.18 91 1018.9
20260831024236 61 215 4.0 11.0 0.00 0.18 0.18 91 1018.9
20260831024029 61 224 4.0 11.0 0.00 0.18 0.18 91 1018.9
20260831023824 61 227 3.0 11.0 0.00 0.18 0.18 91 1019.0
20260831023258 61 270 2.0 9.0 0.00 0.18 0.18 91 1019.0
20260831023049 61 223 2.0 9.0 0.00 0.18 0.18 91 1018.9
20260831022848 61 236 2.0 9.0 0.00 0.18 0.18 90 1019.0
20260831022647 61 218 2.0 9.0 0.00 0.18 0.18 90 1019.0
20260831022448 61 248 2.0 9.0 0.00 0.18 0.18 90 1018.9
20260831022240 61 235 2.0 9.0 0.00 0.18 0.18 90 1018.9
20260831022031 61 143 2.0 9.0 0.00 0.18 0.18 90 1019.0
20260831021831 61 243 2.0 9.0 0.00 0.18 0.18 91 1018.9
20260831021626 61 260 2.0 9.0 0.00 0.18 0.18 91 1019.0
20260831021421 62 217 1.0 5.0 0.00 0.18 0.18 91 1018.9
20260831020859 62 232 1.0 7.0 0.00 0.18 0.18 91 1018.8
20260831020656 62 270 1.0 7.0 0.00 0.18 0.18 91 1018.9
20260831020450 62 255 1.0 7.0 0.00 0.18 0.18 91 1018.9
20260831020239 62 245 2.0 7.0 0.00 0.18 0.18 91 1018.9
20260831020039 62 262 2.0 7.0 0.00 0.18 0.18 91 1018.9
20260831015833 62 230 2.0 7.0 0.00 0.18 0.18 91 1018.9
20260831015631 62 251 2.0 7.0 0.00 0.18 0.18 91 1018.9
20260831015425 62 224 2.0 7.0 0.00 0.18 0.18 91 1018.9
20260831015218 62 274 2.0 7.0 0.00 0.18 0.18 91 1018.9
20260831015013 62 286 2.0 7.0 0.00 0.18 0.18 91 1018.9
20260831014814 62 261 2.0 6.0 0.00 0.18 0.18 91 1018.9
20260831014610 62 219 2.0 6.0 0.00 0.18 0.18 91 1018.9
20260831014404 62 224 1.0 6.0 0.00 0.18 0.18 91 1018.9
20260831014154 62 234 1.0 6.0 0.00 0.18 0.18 91 1018.9
20260831013953 62 245 1.0 6.0 0.00 0.18 0.18 91 1019.0
20260831013435 61 26 1.0 6.0 0.00 0.18 0.18 91 1019.0
20260831013233 61 220 1.0 6.0 0.00 0.18 0.18 91 1019.0
20260831013025 61 221 1.0 6.0 0.00 0.18 0.18 91 1019.1
20260831012816 61 254 1.0 6.0 0.00 0.18 0.18 91 1019.0
20260831012616 61 221 0.0 6.0 0.00 0.18 0.18 91 1019.0
20260831012410 61 276 0.0 5.0 0.00 0.18 0.18 91 1019.0
20260831012205 61 268 0.0 5.0 0.00 0.18 0.18 91 1019.0
20260831011634 61 255 0.0 4.0 0.00 0.18 0.18 91 1019.0
20260831011424 61 217 0.0 4.0 0.00 0.18 0.18 91 1019.1
20260831011218 61 225 0.0 4.0 0.00 0.18 0.18 91 1019.2
20260831011016 61 221 0.0 4.0 0.00 0.18 0.18 91 1019.2
20260831010807 61 222 0.0 4.0 0.00 0.18 0.18 91 1019.1
20260831010241 61 157 0.0 3.0 0.00 0.18 0.18 91 1019.0
20260831010034 61 153 0.0 3.0 0.00 0.18 0.18 91 1019.2
20260831005826 61 250 0.0 3.0 0.00 0.18 0.18 91 1019.2
20260831005620 61 231 0.0 3.0 0.00 0.18 0.18 91 1019.2
20260831005051 60 235 0.0 2.0 0.00 0.18 0.18 92 1019.2
20260831004852 60 226 0.0 2.0 0.00 0.18 0.18 92 1019.2
20260831004651 61 235 0.0 2.0 0.00 0.18 0.18 92 1019.3
20260831004450 60 252 0.0 3.0 0.00 0.18 0.18 92 1019.3
20260831004251 60 243 0.0 3.0 0.00 0.18 0.18 92 1019.3
20260831004042 60 235 0.0 3.0 0.00 0.18 0.18 92 1019.3
20260831003837 60 219 0.0 3.0 0.00 0.18 0.18 92 1019.2
20260831003627 60 221 0.0 3.0 0.00 0.18 0.18 92 1019.1
20260831003424 60 250 0.0 5.0 0.00 0.18 0.18 92 1019.2
20260831003219 60 245 0.0 5.0 0.00 0.18 0.18 91 1019.2
20260831003010 60 241 0.0 5.0 0.00 0.18 0.18 91 1019.2
20260831002808 60 226 0.0 5.0 0.00 0.18 0.18 91 1019.2
20260831002602 60 249 0.0 5.0 0.00 0.18 0.18 91 1019.2
20260831002400 60 230 1.0 5.0 0.00 0.18 0.18 91 1019.2
20260831002156 60 227 1.0 5.0 0.00 0.18 0.18 90 1019.2
20260831001952 60 236 2.0 5.0 0.00 0.18 0.18 90 1019.2
20260831001748 61 250 2.0 5.0 0.00 0.18 0.18 90 1019.1
20260831001543 61 262 2.0 10.0 0.00 0.18 0.18 90 1019.1
20260831001334 60 199 2.0 10.0 0.00 0.18 0.18 90 1019.0
20260831001134 60 221 2.0 10.0 0.00 0.18 0.18 90 1019.2
20260831000935 60 240 2.0 10.0 0.00 0.18 0.18 90 1019.1
20260831000726 60 264 2.0 10.0 0.00 0.18 0.18 89 1019.2
20260831000520 61 230 2.0 10.0 0.00 0.18 0.18 89 1019.2
20260831000315 60 299 2.0 10.0 0.00 0.18 0.18 89 1019.2
20260831000116 61 263 2.0 10.0 0.00 0.18 0.18 89 1019.2
20260830235910 60 217 2.0 10.0 0.00 0.18 0.18 89 1019.2
20260830235707 60 257 2.0 10.0 0.00 0.18 0.18 89 1019.2
20260830235504 60 248 2.0 9.0 0.00 0.18 0.18 89 1019.0
20260830235306 60 211 2.0 9.0 0.00 0.18 0.18 89 1019.1
20260830235104 60 210 3.0 9.0 0.00 0.18 0.18 89 1019.1
20260830234856 60 226 4.0 9.0 0.00 0.18 0.18 89 1019.0
20260830234646 60 228 4.0 9.0 0.00 0.18 0.18 90 1019.0
20260830234437 60 227 3.0 9.0 0.00 0.18 0.18 90 1019.0
20260830234236 60 224 3.0 9.0 0.00 0.18 0.18 90 1018.9
20260830234033 60 245 3.0 9.0 0.00 0.18 0.18 90 1018.9
20260830233829 60 229 2.0 9.0 0.00 0.18 0.18 90 1018.7
20260830233620 60 264 3.0 9.0 0.00 0.18 0.18 90 1018.7
20260830233059 60 256 4.0 20.0 0.03 0.18 0.18 89 1018.7
20260830232203 61 217 7.0 20.0 0.07 0.18 0.18 88 1018.5
20260830231957 61 224 7.0 20.0 0.12 0.18 0.18 87 1018.4
20260830231749 60 247 7.0 20.0 0.28 0.18 0.18 87 1018.5
20260830231539 60 219 6.0 20.0 0.51 0.16 0.16 88 1018.6
20260830231336 61 258 5.0 11.0 0.59 0.14 0.14 88 1018.9
20260830230455 61 250 3.0 11.0 0.15 0.07 0.07 84 1018.7
20260830230246 61 273 3.0 11.0 0.54 0.07 0.07 86 1018.7
20260830230047 61 226 2.0 7.0 0.92 0.06 0.06 87 1018.7
20260830225846 61 233 2.0 7.0 0.00 0.04 0.04 86 1018.6
20260830225646 61 253 2.0 7.0 0.00 0.04 0.04 85 1018.5
20260830225447 61 221 1.0 7.0 0.00 0.04 0.04 85 1018.4
20260830224923 61 230 1.0 4.0 0.00 0.04 0.04 87 1018.2
20260830224718 61 238 1.0 4.0 0.03 0.04 0.04 87 1018.3
20260830224507 61 213 1.0 21.0 0.03 0.04 0.04 87 1018.3
20260830224302 61 246 2.0 21.0 0.03 0.04 0.04 88 1018.4
20260830224102 61 223 2.0 21.0 0.04 0.04 0.04 88 1018.4
20260830223901 61 233 4.0 21.0 0.06 0.04 0.04 88 1018.5
20260830223654 61 264 5.0 21.0 0.08 0.04 0.04 88 1018.6
20260830223452 61 214 6.0 21.0 0.14 0.04 0.04 88 1018.7
20260830223249 62 264 6.0 21.0 0.23 0.04 0.04 88 1019.1
20260830223040 62 304 6.0 21.0 0.11 0.03 0.03 87 1019.3
20260830222831 62 248 6.0 21.0 0.16 0.03 0.03 86 1019.4
20260830222627 62 277 5.0 21.0 0.53 0.02 0.03 86 1019.2
20260830222111 64 274 6.0 21.0 0.17 0.01 0.01 83 1018.9
20260830221905 65 278 5.0 21.0 0.00 0.00 0.00 81 1018.7
20260830221657 66 311 5.0 21.0 0.00 0.00 0.00 80 1018.4
20260830221447 67 244 5.0 21.0 0.00 0.00 0.00 76 1018.2
20260830221246 68 252 3.0 15.0 0.00 0.00 0.00 72 1018.2
20260830221038 69 276 2.0 9.0 0.00 0.00 0.00 69 1018.1
20260830220830 69 240 2.0 9.0 0.00 0.00 0.00 68 1017.6
20260830220256 69 245 1.0 4.0 0.00 0.00 0.00 67 1017.3
20260830220052 69 245 1.0 4.0 0.00 0.00 0.00 67 1017.2
20260830215530 69 231 1.0 4.0 0.00 0.00 0.00 66 1017.1
20260830215328 69 235 1.0 4.0 0.00 0.00 0.00 66 1017.2
20260830215122 69 228 0.0 4.0 0.00 0.00 0.00 66 1017.2
20260830214603 69 217 0.0 5.0 0.00 0.00 0.00 67 1017.1
20260830214403 69 228 1.0 5.0 0.00 0.00 0.00 67 1017.0
20260830214158 69 219 1.0 5.0 0.00 0.00 0.00 67 1017.0
20260830213952 69 199 1.0 5.0 0.00 0.00 0.00 67 1017.1
20260830213747 69 237 1.0 5.0 0.00 0.00 0.00 68 1017.1
20260830213540 69 229 1.0 5.0 0.00 0.00 0.00 68 1017.0
20260830213337 69 243 0.0 5.0 0.00 0.00 0.00 68 1017.1
20260830213135 69 244 0.0 5.0 0.00 0.00 0.00 68 1017.0
20260830212607 69 225 0.0 3.0 0.00 0.00 0.00 68 1016.9
20260830212035 69 240 0.0 3.0 0.00 0.00 0.00 68 1016.9
20260830211830 69 237 0.0 3.0 0.00 0.00 0.00 68 1017.0
20260830210940 69 234 0.0 3.0 0.00 0.00 0.00 67 1017.0
20260830210423 69 119 0.0 3.0 0.00 0.00 0.00 67 1017.0
20260830210218 69 226 0.0 3.0 0.00 0.00 0.00 67 1017.0
20260830210010 69 219 0.0 3.0 0.00 0.00 0.00 67 1017.0
20260830205759 69 224 0.0 3.0 0.00 0.00 0.00 67 1016.9
20260830205600 69 134 0.0 3.0 0.00 0.00 0.00 67 1016.9
20260830205351 69 228 0.0 1.0 0.00 0.00 0.00 67 1016.9
20260830204821 69 56 0.0 1.0 0.00 0.00 0.00 67 1016.9
20260830204619 69 153 0.0 1.0 0.00 0.00 0.00 67 1016.9
20260830204412 69 207 0.0 0.0 0.00 0.00 0.00 67 1017.0
20260830204208 69 115 0.0 4.0 0.00 0.00 0.00 66 1017.0
20260830204005 70 193 0.0 4.0 0.00 0.00 0.00 66 1017.0
20260830203757 70 222 0.0 4.0 0.00 0.00 0.00 66 1017.0
20260830203234 70 203 0.0 2.0 0.00 0.00 0.00 66 1017.1
20260830203031 70 224 0.0 2.0 0.00 0.00 0.00 66 1017.0
20260830202826 70 165 0.0 1.0 0.00 0.00 0.00 66 1017.1
20260830202259 70 205 0.0 3.0 0.00 0.00 0.00 65 1017.0
20260830202059 70 228 0.0 3.0 0.00 0.00 0.00 65 1017.2
20260830201524 70 247 0.0 3.0 0.00 0.00 0.00 65 1017.0
20260830200956 70 288 0.0 3.0 0.00 0.00 0.00 65 1017.0
20260830200757 70 121 0.0 3.0 0.00 0.00 0.00 65 1017.0